Hors Challenge

Le Trail Séries - Dinant 40.00 km

du 6 mars au 14 mars 2021

Le Classement original se trouve sur : http://www.chronorace.be
 
LE TRAIL SERIES - DINANT
DISTANCE : 40.00 km
du 6 mars au 14 mars 2021
 
Place Dos NOM Catégorie Pl/cat temps temps/km Vitesse
1 1031 DENEFFE GUILLAUME SH 1 03:03:21 04:35 13.09
2 613 CARABIN SÉBASTIEN SH 2 03:14:49 04:52 12.32
3 612 REMACLE OLIVIER SH 3 03:27:45 05:12 11.55
4 371 MAHIA SEBASTIEN SH 4 03:28:23 05:13 11.52
5 20 DELATTRE LOUIS SH 5 03:34:16 05:21 11.20
6 423 SIMOEN LOUIS SH 6 03:40:27 05:31 10.89
7 485 LIBERT DAMIEN SH 7 03:44:06 05:36 10.71
8 483 BRUGGEMAN PIETER-JAN SH 8 03:44:07 05:36 10.71
9 523 FONTAINE GILLES SH 9 03:54:27 05:52 10.24
10 581 WIART YVES V2 1 03:55:33 05:53 10.19
11 582 DERAVET BERNARD V3 1 03:55:33 05:53 10.19
12 488 DEBRABANDERE LANDER V1 1 04:01:04 06:02 9.96
13 16 CHABOTEAUX JÉRÔME SH 10 04:05:20 06:08 9.78
14 819 BUYTAERT FRANK V2 2 04:08:51 06:13 9.64
15 746 VANDERMEULEN SEVERINE A1 1 04:10:40 06:16 9.57
16 654 DULON OLIVIER V2 3 04:12:44 06:19 9.50
17 31 DELABASSE BENJAMIN V1 2 04:18:11 06:27 9.30
18 1049 CORNET RÉGIS V1 3 04:19:25 06:29 9.25
19 1048 RADERMECKER NICOLAS SH 11 04:19:27 06:29 9.25
20 1020 ORISTIL ALEXANDRE V1 4 04:19:33 06:29 9.25
21 1006 DE MOOR MARTIN SH 12 04:19:40 06:29 9.24
22 539 HAEGHENS ALAIN-BRICE SH 13 04:19:49 06:30 9.24
23 616 JEUNEHOMME DENIS V1 5 04:22:15 06:33 9.15
24 437 CLAUS SOFIE A1 2 04:22:45 06:34 9.13
25 843 CASTELAIN JEAN-LUC V2 4 04:23:13 06:35 9.12
26 186 BRANCART LAURENT V1 6 04:23:20 06:35 9.11
27 826 DE DORLODOT TOM SH 14 04:28:24 06:43 8.94
28 651 LEMIRE LAURENT V1 7 04:29:01 06:44 8.92
29 755 LACROIX LOGAN SH 15 04:30:40 06:46 8.87
30 1051 BERGIERS BENJAMIN SH 16 04:30:43 06:46 8.87
31 232 SCHACHT WIM V2 5 04:32:18 06:48 8.81
32 231 VAN RANST WIEBE SH 17 04:32:20 06:48 8.81
33 410 CHAUSSIER GRÉGORY V1 8 04:33:00 06:49 8.79
34 876 DELS DAVE V1 9 04:33:04 06:50 8.79
35 5 DE WIN VINCENT SH 18 04:33:19 06:50 8.78
36 507 PONTI ANGELO V1 10 04:38:53 06:58 8.61
37 4 DELBROUCK YANNICK V1 11 04:42:12 07:03 8.50
38 1042 WAUTERS DIRK V1 12 04:42:55 07:04 8.48
39 531 COLLIGNON THOMAS SH 19 04:43:49 07:06 8.46
40 890 VAN HOOMISSEN TOM SH 20 04:43:49 07:06 8.46
41 546 CATINUS YOURI SH 21 04:44:24 07:07 8.44
42 743 SCHAEFER ERIC V1 13 04:45:52 07:09 8.40
43 711 FANUEL MARTIN SH 22 04:54:43 07:22 8.14
44 1055 BAETENS GEERT V2 6 04:55:05 07:23 8.13
45 25 HUBRECHT STEF SH 23 04:57:18 07:26 8.07
46 592 DIEUDONNE MICHEL V2 7 04:57:38 07:26 8.06
47 1140 WILK JANUSZ V3 2 05:00:47 07:31 7.98
48 270 LAMBRECHT PIERRE V1 14 05:02:34 07:34 7.93
49 174 DEWIT RAYMOND V2 8 05:12:18 07:48 7.69
50 175 DUBOIS GEOFFREY V1 15 05:12:20 07:48 7.68
51 277 COQUELET JOFFREY V1 16 05:17:29 07:56 7.56
52 100 MAZZAGLIA PIETRO V1 17 05:18:21 07:58 7.54
53 82 BARTOSZUK ROMAN V1 18 05:19:06 07:59 7.52
54 389 MONIN MIGUEL V1 19 05:19:47 08:00 7.51
55 89 DEDOCQ SÉBASTIEN SH 24 05:20:44 08:01 7.48
56 884 VAN STEENBRUGGE KARLIEN A1 3 05:22:11 08:03 7.45
57 409 SMETS GIJS V1 20 05:22:19 08:03 7.45
58 602 CLAES DAVID V1 21 05:28:17 08:12 7.31
59 873 PIERSON BENOIT SH 25 05:28:35 08:13 7.30
60 172 DE MAESSCHALCK ERIC V1 22 05:29:51 08:15 7.28
61 648 VAN DEN EEDE NOELLE A2 1 05:30:42 08:16 7.26
62 1137 LANGELEZ OLIVIER V1 23 05:34:01 08:21 7.19
63 161 COTTIN POL-HENRI SH 26 05:34:47 08:22 7.17
64 497 HABETS LÉON SH 27 05:35:56 08:24 7.14
65 499 HAGELSTEIN ERIC SH 28 05:37:13 08:26 7.12
66 1138 BELANGER ISABELLE A2 2 05:39:48 08:30 7.06
67 93 DESILLE JACK V2 9 05:40:27 08:31 7.05
68 703 SCHOENAERTS KRIS V1 24 05:41:20 08:32 7.03
69 601 ROMBAUX DIDIER V3 3 05:43:01 08:35 7.00
70 854 VERELLEN FRANKY V1 25 05:50:12 08:45 6.85
71 989 DE NEEF KRISTOF V1 26 06:07:49 09:12 6.53
72 555 VAN DEN BROEKE PATRICK V3 4 06:15:25 09:23 6.39
73 633 MEURICE ISABELLE A2 3 06:15:48 09:24 6.39
74 398 CHIMKOVITCH KATIA A1 4 06:21:03 09:32 6.30
75 518 MEYER DELPHINE SD 1 06:31:13 09:47 6.13
76 634 RAMAEKERS ISABELLE A3 1 06:32:11 09:48 6.12
77 649 PIRONNET ERIC V2 10 06:38:52 09:58 6.02
78 14 DEMOULIN STEEVE V1 27 07:07:33 10:41 5.61
79 18 GALANT ANNE A2 4 08:04:08 12:06 4.96
80 600 DEGUELDRE THIBAULT SH 29 08:44:19 13:06 4.58
81 599 DEGUELDRE RENAUD V2 11 08:44:34 13:07 4.58
82 596 DEGEEST WESLEY V1 28 09:19:10 13:59 4.29
83 594 DE SMAELE STEFAAN SH 30 09:19:14 13:59 4.29
84 595 DHAEZE JURGEN V1 29 09:19:22 13:59 4.29